Location: Bakov nad Jizerou
(50.4784°N, 14.9394°E)
Time: 02:56:11
(UTC+00:00)

Cosmos 1727 Rocket - Pass Details

Date: 31 October 2021
Orbit: 960 x 997 km, 82.9° (Epoch: 07 December)

Event Time Altitude Azimuth Distance (km) Brightness Sun altitude
Rises 03:23:52 0° 156° (SSE) 3,688 7.3 -23.6°
Reaches altitude 10° 03:26:38 10° 147° (SSE) 2,739 6.7 -23.1°
Maximum altitude 03:32:06 33° 86° (E) 1,596 5.7 -22.3°
Drops below altitude 10° 03:37:33 10° 25° (NNE) 2,733 6.7 -21.4°
Sets 03:40:18 0° 16° (NNE) 3,679 7.3 -21.0°
